Regional Weather Roundup
Issued by NWS

Home | Current Version | Previous Version | Text Only | Print | Product List | Glossary On
Versions: 1 2 3 4 5 6 7 8 9 10 11 12 13 14 15 16 17 18 19 20 21 22 23 24 25 26 27 28 29 30 31 32 33 34 35 36 37 38 39 40 41 42 43 44 45 46 47 48 49 50
089
ASUS43 KDTX 211110
RWRMI
MICHIGAN HOURLY REGIONAL WEATHER ROUNDUP
NATIONAL WEATHER SERVICE DETROIT/PONTIAC MI
ISSUED BY NATIONAL WEATHER SERVICE GRAND RAPIDS MI
600 AM EST TUE FEB 21 2017

NOTE: "FAIR" INDICATES FEW OR NO CLOUDS BELOW 12,000 FEET WITH NO
SIGNIFICANT WEATHER AND/OR OBSTRUCTION TO VISIBILITY.

MIZ047>049-052>055-059>063-066>070-074>076-081>083-211200-
SOUTHEAST LOWER MICHIGAN

CITY           SKY/WX    TMP DP  RH WIND       PRES   REMARKS
ADRIAN         CLOUDY    36  34  92 CALM      29.99F
ALMA           CLOUDY    42  35  74 S3        29.92F
ANN ARBOR      CLOUDY    37  32  82 CALM      29.99F
BAD AXE        CLOUDY    38  29  71 S14       29.96S WCI  29
DETROIT CITY   CLOUDY    37  32  82 CALM      30.00S
DETROIT        CLOUDY    39  32  76 CALM      30.01S
FLINT          CLOUDY    44  35  70 S9        29.95F
GROSSE ILE     CLOUDY    39  33  80 CALM      29.99F
HILLSDALE      CLOUDY    41  36  81 S9        29.95F
HOWELL         PTCLDY    42  33  72 SE9       29.96F

CITY           SKY/WX    TMP DP  RH WIND       PRES   REMARKS
JACKSON        CLOUDY    43  35  73 S6        29.96F
LANSING        CLOUDY    46  35  65 S10       29.94F
MASON          CLOUDY    43  37  78 S10       29.95F
MONROE         CLOUDY    37  34  90 CALM      30.00R
MT. CLEMENS    CLOUDY    35  34  94 CALM      29.99S
PONTIAC        CLOUDY    37  30  75 SE3       29.97F
PORT HOPE        N/A     38  28  67 S10G18    29.91F WCI  31
PORT HURON     CLOUDY    37  30  75 SW3       30.02R
TRI CITIES     CLOUDY    43  35  73 S10G20    29.93F
YPSILANTI      CLOUDY    37  34  89 CALM      30.00F
$$
MIZ043>046-050>051-056>058-064>065-071>073-077>080-211200-
SOUTHWEST LOWER MICHIGAN

CITY           SKY/WX    TMP DP  RH WIND       PRES   REMARKS
BATTLE CREEK   PTCLDY    49  40  71 S9        29.94F
BENTON HARBOR  CLOUDY    57  45  64 S8        29.93R
BIG RAPIDS     MIX PCPN  44  37  75 CALM      29.89F
COLDWATER      CLOUDY    48  39  71 S6        29.96S
HOLLAND        LGT RAIN  56  46  69 S14G21    29.91S
GRAND RAPIDS   CLOUDY    50  39  66 S14       29.92R
KALAMAZOO      CLOUDY    48  38  68 S8        29.94S
MARSHALL       CLOUDY    48  38  68 S7        29.94S
MOUNT PLEASANT CLOUDY    41  33  73 CALM      29.91F
MUSKEGON       LGT RAIN  50  46  86 S14       29.89R
STURGIS        CLOUDY    48  40  74 S6        29.95S
$$
MIZ016>042-211200-
NORTHERN LOWER MICHIGAN

CITY           SKY/WX    TMP DP  RH WIND       PRES   REMARKS
ALPENA         CLOUDY    41  31  67 S9        29.87F
BEAVER ISLAND  LGT RAIN  44  41  88 S13G22    29.75S
BELLAIRE       LGT RAIN  44  41  87 S9        29.83F
CADILLAC       RAIN      41  38  89 S8        29.86S
CHARLEVOIX     LGT RAIN  45  41  85 S14G22    29.81F
GAYLORD        LGT RAIN  42  34  73 S14       29.83F
HOUGHTON LAKE  CLOUDY    41  31  67 S8        29.90F
MANISTEE       LGT RAIN  48  47  96 SE3       29.84S
OSCODA         CLOUDY    40  29  65 S9        29.90F WCI  34
PELLSTON       LGT RAIN  46  40  79 S9G23     29.79F
TRAVERSE CITY  LGT RAIN  47  43  86 VRB6      29.81F
LUDINGTON      DRIZZLE   49  48  97 SW7       29.86R
$$
MIZ007>008-015-211200-
EASTERN UPPER MICHIGAN

CITY           SKY/WX    TMP DP  RH WIND       PRES   REMARKS
KINROSS        LGT RAIN  34  32  92 SE15      29.79F WCI  24
MACKINAC ISLAN LGT SNOW  36  36 100 SE5       29.79S WCI  32
NEWBERRY       CLOUDY    38  37  97 S16       29.71F WCI  29
S. S. MARIE    LGT RAIN  35  32  88 SE9       29.79F WCI  28
$$
MIZ004>006-011>014-085-211200-
CENTRAL UPPER MICHIGAN

CITY           SKY/WX    TMP DP  RH WIND       PRES   REMARKS
MANISTIQUE     CLOUDY    38  37  97 SW10G22   29.74R WCI  31
ESCANABA       CLOUDY    42  42 100 SW7       29.73S FOG
MENOMINEE      CLOUDY    50  49  96 SW6       29.78R FOG
SAWYER-GWINN   PTCLDY    44  43  97 SW12      29.69R FOG
$$
MIZ001>003-009>011-084-211200-
WESTERN UPPER MICHIGAN

CITY           SKY/WX    TMP DP  RH WIND       PRES   REMARKS
IRON MOUNTAIN  CLEAR     49  44  83 W8        29.72R
HOUGHTON       CLOUDY    39  35  86 W28G41    29.67R WCI  28
COPPER HARBOR    N/A     43  39  86 NW16G32   29.61R
IRONWOOD       PTCLDY    38  37  97 W12       29.77R WCI  30
$$

ABBREVIATIONS USED IN REMARKS
   TC - TEMPERATURE IN CELSIUS
  WCI - WIND CHILL INDEX
   HX - HEAT INDEX
  VSB - VISIBILITY





USA.gov is the U.S. government's official web portal to all federal, state and local government web resources and services.